User: anonymous   Login
Location: Unspecified
(0.0000°N, 0.0000°E)
Time: 17:05:18
(UTC+02:00)
Language:

GPS 2-12 Rocket1 - Orbit

View from above orbital plane
View from above orbital plane
View from above satellite
View from above satellite

Ground track
Ground track

The orbit data is extracted from the following two-line orbital elements,

1 21891U 92009B   17086.36009951 +.00000678 +00000-0 +32269-4 0  9993
2 21891 019.9966 081.9838 0047392 149.8808 210.4347 14.82838874333185
Epoch (UTC): 27 March 2017 08:38:32
Eccentricity: 0.0047392
inclination: 19.9966°
perigee height: 587 km
apogee height: 653 km
right ascension of ascending node: 81.9838°
argument of perigee: 149.8808°
revolutions per day: 14.82838874
mean anomaly at epoch: 210.4347°
orbit number at epoch: 33318

The dashed part of the orbit path shows where the satellite is in the earth's shadow,  

DLR